Home   Weather   Wailuku   Past weeks

Flag for USA Past Weather in Wailuku, Hawaii, USA — Yesterday and Last 2 Weeks

Now
89 °F

Scattered clouds.


Feels Like: 95 °F
Forecast: 75 / 87 °F
Wind: 15 mph from Northeast

Location: Kahului Airport

Current Time: Sep 24, 2016 at 4:06:50 PM

Latest Report: Sep 24, 2016 at 2:54 PM


Visibility: 10 mi

Pressure: 29.94 "Hg

Humidity: 55%

Dew Point: 71 °F

Location of WailukuLocation

Past Weather in Wailuku — Graph

°F

Wailuku Temperature Yesterday

Maximum temperature yesterday: 88 °F (at 11:54 AM)
Minimum temperature yesterday: 73 °F (at 1:54 AM)
Average temperature yesterday: 81 °F

High & Low Weather Summary for the Past Weeks

 TemperatureHumidityPressure
High90 °F (Sep 17, 11:54 AM)97% (Sep 14, 6:54 AM)30.07 "Hg (Sep 14, 6:54 AM)
Low68 °F (Sep 11, 5:54 AM)48% (Sep 17, 12:54 PM)29.89 "Hg (Sep 10, 3:54 PM)
Average80 °F72%29.98 "Hg
* Reported Sep 9 2:54 PM — Sep 24 2:54 PM, Wailuku, Weather by CustomWeather, © 2016

Note: Actual official high and low records may vary slightly from our data, if they occured in-between our weather recording intervals... More about our weather records

Advertising

Wailuku Weather History for the Previous 24 Hours

Scroll right to see more
 ConditionsComfort  
Time TempWeatherWind HumidityBarometerVisibility
2:54 PM
Sat, Sep 24
89 °FScattered clouds.15 mph55%29.94 "Hg10 mi
1:54 PM89 °FScattered clouds.17 mph55%29.95 "Hg10 mi
12:54 PM89 °FScattered clouds.18 mph55%29.98 "Hg10 mi
11:54 AM90 °FScattered clouds.14 mph54%29.99 "Hg10 mi
10:54 AM87 °FScattered clouds.16 mph55%30.01 "Hg10 mi
9:54 AM86 °FScattered clouds.18 mph61%30.02 "Hg10 mi
8:54 AM84 °FScattered clouds.14 mph65%30.03 "Hg10 mi
7:54 AM82 °FScattered clouds.9 mph70%30.02 "Hg10 mi
6:54 AM78 °FScattered clouds.9 mph79%30.00 "Hg10 mi
5:54 AM77 °FPassing clouds.10 mph77%29.99 "Hg10 mi
4:54 AM78 °FPartly cloudy.7 mph79%29.98 "Hg10 mi
3:54 AM77 °FMostly cloudy.12 mph85%29.98 "Hg10 mi
2:54 AM78 °FPassing clouds.7 mph79%29.98 "Hg10 mi
1:54 AM78 °FPassing clouds.5 mph79%29.98 "Hg10 mi
12:54 AM78 °FPassing clouds.6 mph79%30.01 "Hg10 mi
11:54 PM
Fri, Sep 23
78 °FPassing clouds.7 mph79%30.02 "Hg10 mi
10:54 PM78 °FPassing clouds.9 mph82%30.02 "Hg10 mi
9:54 PM80 °FPassing clouds.6 mph71%30.02 "Hg10 mi
8:54 PM80 °FPassing clouds.9 mph71%30.01 "Hg10 mi
7:54 PM81 °FPassing clouds.7 mph67%29.99 "Hg10 mi
6:54 PM81 °FPassing clouds.14 mph69%29.96 "Hg10 mi
5:54 PM82 °FScattered clouds.17 mph70%29.93 "Hg10 mi
4:54 PM86 °FScattered clouds.18 mph61%29.91 "Hg10 mi
Weather by CustomWeather, © 2016

See weather overviewHow to use our weather pages